Вернуться в каталог

STARLINK-33747

АктивенСвязьVLEO
NORAD 63444·PAYLOAD·🇺🇸 United States

Запущен Apr 4, 2025 с Vandenberg Space Force Base

Loading…

Ближайшие Пролёты (ближайшие 24 часа)

TLE

СвежийSource: CelesTrak SupGP

Эпоха: Sep 15, 2026, 03:32 UTC

1 63444C 25069M   26258.14770833  .00058671  00000+0  17334-2 0  2583
2 63444  53.1584 334.8048 0001160  90.3990 115.1396 15.34361961    13

Отслеживайте STARLINK-33747 в реальном времени с AllMySat

Download on the App Store